Regional Weather Roundup
Issued by NWS

Home | Current Version | Previous Version | Graphics & Text | Print | Product List | Glossary On
Versions: 1 2 3 4 5 6 7 8 9 10 11 12 13 14 15 16 17 18 19 20 21 22 23 24 25 26 27 28 29 30 31 32 33 34 35 36 37 38 39 40 41 42 43 44 45 46 47 48 49 50
575
ASUS43 KLOT 241612
RWRIL

ILLINOIS REGIONAL WEATHER ROUNDUP
NATIONAL WEATHER SERVICE CHICAGO/ROMEOVILLE IL
1000 AM CST FRI FEB 24 2017

NOTE: "FAIR" INDICATES FEW OR NO CLOUDS BELOW 12,000 FEET WITH NO
SIGNIFICANT WEATHER AND/OR OBSTRUCTIONS TO VISIBILITY.

* THESE STATIONS ARE NOT UNDER NWS QUALITY CONTROL. THEY ALSO MAY NOT
  REPORT WEATHER SUCH AS PRECIPITATION OR FOG.

ILZ001-002-007-009-015-016-024-241700-
NORTHWEST ILLINOIS

CITY           SKY/WX    TMP DP  RH WIND       PRES   REMARKS
MOLINE         CLOUDY    41  37  86 N6        29.48R FOG
$$

ILZ003-004-008-010-011-017-018-241700-
NORTH CENTRAL ILLINOIS

CITY           SKY/WX    TMP DP  RH WIND       PRES   REMARKS
ROCKFORD       DRIZZLE   38  35  89 NE15      29.50F FOG     WCI  29
FREEPORT*      CLOUDY    34  33  97 NE18      29.51S FOG     WCI  23
ROCHELLE*      LGT RAIN  37  37  99 NE17      29.47S WCI  28
DE KALB*       DRIZZLE   38  37  99 NE12      29.47R WCI  30
PERU*          CLOUDY    44  42  94 E7        29.44S FOG
$$

ILZ005-006-012>014-019>023-241700-
NORTHEAST ILLINOIS

CITY           SKY/WX    TMP DP  RH WIND       PRES   REMARKS
CHICAGO-OHARE  DRIZZLE   39  36  89 N16       29.47F FOG     WCI  30
CHICAGO-MIDWAY CLOUDY    41  38  89 N12       29.47F FOG
AURORA         CLOUDY    40  39  97 NE16      29.45F FOG
LANSING*       CLOUDY    44  44 100 NE5       29.47S FOG
JOLIET*        CLOUDY    46  45  96 NE8       29.45F
WAUKEGAN       LGT RAIN  36  35  96 N13G24    29.49S FOG     WCI  27
DUPAGE AIRPORT FOG       38  36  92 NE12      29.46F VSB 3/4 WCI  30
KANKAKEE*      MOSUNNY   63  58  83 S15G23    29.45S
WHEELING       CLOUDY    37  36  96 N10       29.49F FOG     WCI  30
MORRIS*        CLOUDY    46  44  95 NE6       29.43S FOG
ROMEOVILLE*    CLOUDY    43  43 100 NE10      29.45F FOG
NORTHERLY ISL    N/A     39  38  96 MISG        N/A
$$

LMZ740>746-241700-
SOUTHERN LAKE MICHIGAN

STATION/POSITION SKY/WX   TEMP    WIND        PRES    VSBY  WAVE
                          AIR SEA DIR/SP/G                  HT/PER
                          (F)     (DEG/KT/KT) (MB)    (MI)  (FT/S)
HARRISON CRIB              37     330/ 16/ 18   N/A
BURNHAM HARBOR             39     360/ 10/ 14   N/A
CALUMET HARBOR             38     330/ 11/ 14  997.8F
BURNS HARBOR               38     250/  6/  7  999.3S
MICHIGAN CITY              38     210/  6/  7   N/A
$$

ILZ025>027-034>036-040-047-049-050-058-095>099-241700-
WEST-CENTRAL ILLINOIS

CITY           SKY/WX    TMP DP  RH WIND       PRES   REMARKS
QUINCY         CLOUDY    43  41  93 W15G23    29.53R
GALESBURG*     FOG       41  41 100 NW9       29.47R VSB 1/2
MACOMB*        CLOUDY    44  44  99 W14       29.51R FOG
JACKSONVILLE*  CLOUDY    52  48  87 W20G25    29.51R
PITTSFIELD*    CLOUDY    51  49  93 W12G18    29.54R FOG
$$

ILZ028>032-037-038-041>044-048-051>054-059>061-241700-
CENTRAL ILLINOIS

CITY           SKY/WX    TMP DP  RH WIND       PRES   REMARKS
PONTIAC        MOSUNNY   64  60  85 S20G28    29.43S
BLOOMINGTON    CLOUDY    63  57  81 SW28G33   29.44R
DECATUR        MOSUNNY   64  54  69 SW24G35   29.48R
PEORIA         CLOUDY    62  56  80 SW15      29.42R
LACON*         PTSUNNY   50  49  96 CALM      29.42S FOG
LINCOLN*       CLOUDY    64  58  81 S10G20    29.45R
SPRINGFIELD    CLOUDY    64  56  75 S16G25    29.46R
TAYLORVILLE    CLOUDY    63  55  77 S22G32    29.49R
$$

ILZ033-039-045-046-055>057-062-063-241700-
EAST-CENTRAL ILLINOIS

CITY           SKY/WX    TMP DP  RH WIND       PRES   REMARKS
CHAMPAIGN      CLOUDY    65  55  70 S28G35    29.47S
RANTOUL*       MOSUNNY   66  58  74 SW20G28   29.46F
MATTOON        CLOUDY    65  57  75 S18G28    29.50F
PARIS*         CLOUDY    66  57  73 S29       29.52S
$$

ILZ079-100>102-241700-
SOUTHWEST ILLINOIS

CITY           SKY/WX    TMP DP  RH WIND       PRES   REMARKS
ALTON          CLOUDY    63  54  72 S15G22    29.50R
BELLEVILLE     CLOUDY    66  56  70 VRB7      29.50S
CAHOKIA*       PTSUNNY   67  54  63 SW10G17   29.49F
SPARTA*        CLOUDY    65  54  68 SW12G23   29.55S
$$

ILZ064>066-069>071-074>076-080>082-084>086-088>090-092>094-241700-
SOUTH-CENTRAL ILLINOIS

CITY           SKY/WX    TMP DP  RH WIND       PRES   REMARKS
CARBONDALE     MOSUNNY   67  54  63 S28G35    29.56S
CAIRO*         SUNNY     68  54  60 SW26G35   29.62R
EFFINGHAM*     CLOUDY    67  57  68 S17G28    29.53S
MARION         MOSUNNY   68  55  64 S16G28    29.59S
MT. VERNON     PTSUNNY   67  54  63 SW25G33   29.55S
CENTRALIA*     MOSUNNY   68  56  66 S21G28    29.53S
SALEM*         CLOUDY    68  55  62 SW22G30   29.53R
METROPOLIS*    MOSUNNY   70  55  58 S13G25    29.63S
$$

ILZ067-068-072-073-078-083-087-091-241700-
SOUTHEAST ILLINOIS

CITY           SKY/WX    TMP DP  RH WIND       PRES   REMARKS
LAWRENCEVILLE  MOSUNNY   70  55  59 S26G36    29.56F
FLORA*         MOSUNNY   69  56  63 S23G31    29.54F
FAIRFIELD*     MOSUNNY   68  54  61 SW13G23   29.55F
HARRISBURG*    MOSUNNY   68  55  63 S18G29    29.58F
ROBINSON*      PTSUNNY   68  55  64 S24G36    29.55F
CARMI*         MOSUNNY   69  54  57 SW25G32   29.59R
$$

ABBREVIATIONS USED IN REMARKS
   TC - TEMPERATURE IN CELSIUS
  WCI - WIND CHILL INDEX
   HX - HEAT INDEX
  VSB - VISIBILITY
$$





USA.gov is the U.S. government's official web portal to all federal, state and local government web resources and services.